N1OTX Weather Reports


Display with metric or nautical units.
time (UTC)temp
F
wind
direction
speed
MPH
gust
MPH
rain 1hr
in
rain 24hr
in
rain mn
in
humidity
%
barometer
mb
20240722023010 69 0.0 0.0 0.00 0.00 0.00 76 1017.6
20240722022510 70 0.0 0.0 0.00 0.00 0.00 75 1017.6
20240722022010 70 0.0 0.0 0.00 0.00 0.00 75 1017.6
20240722021510 70 0.0 0.0 0.00 0.00 0.00 74 1017.6
20240722021009 71 0.0 0.0 0.00 0.00 0.00 74 1017.6
20240722020510 71 0.0 0.0 0.00 0.00 0.00 73 1017.8
20240722020010 71 0.0 0.0 0.00 0.00 0.00 72 1017.7
20240722015540 71 0.0 0.0 0.00 0.00 0.00 72 1017.7
20240722015010 71 0.0 0.0 0.00 0.00 0.00 72 1017.6
20240722014509 71 0.0 0.0 0.00 0.00 0.00 72 1017.6
20240722014010 71 0.0 0.0 0.00 0.00 0.00 71 1017.6
20240722013509 71 0.0 0.0 0.00 0.00 0.00 71 1017.5
20240722013010 72 0.0 0.0 0.00 0.00 0.00 70 1017.4
20240722012510 72 0.0 0.0 0.00 0.00 0.00 70 1017.4
20240722012010 72 0.0 0.0 0.00 0.00 0.00 70 1017.5
20240722011510 72 0.0 0.0 0.00 0.00 0.00 70 1017.3
20240722011010 72 0.0 1.0 0.00 0.00 0.00 70 1017.4
20240722010540 72 0.0 0.0 0.00 0.00 0.00 70 1017.2
20240722010010 73 0.0 0.0 0.00 0.00 0.00 68 1017.3
20240722005510 73 0.0 0.0 0.00 0.00 0.00 67 1017.2
20240722005010 73 0.0 2.0 0.00 0.00 0.00 67 1017.1
20240722004509 73 135 1.0 3.0 0.00 0.00 0.00 68 1017.2
20240722004009 73 0.0 1.0 0.00 0.00 0.00 67 1017.0
20240722003540 74 0.0 0.0 0.00 0.00 0.00 66 1016.9
20240722003010 74 0.0 0.0 0.00 0.00 0.00 68 1016.8
20240722002510 75 0.0 0.0 0.00 0.00 0.00 68 1016.9
20240722002010 75 135 1.0 3.0 0.00 0.00 0.00 63 1016.8
20240722001509 75 135 1.0 3.0 0.00 0.00 0.00 63 1016.5
20240722001010 75 135 1.0 3.0 0.00 0.00 0.00 63 1016.6
20240722000510 75 90 1.0 3.0 0.00 0.00 0.00 64 1016.5
20240722000009 76 90 1.0 4.0 0.00 0.00 0.00 63 1016.5
20240721235510 76 113 1.0 3.0 0.00 0.00 0.00 63 1016.5
20240721235009 76 113 1.0 3.0 0.00 0.00 0.00 63 1016.5
20240721234510 77 113 1.0 3.0 0.00 0.00 0.00 62 1016.4
20240721234009 77 113 2.0 4.0 0.00 0.00 0.00 62 1016.4
20240721233510 77 113 2.0 4.0 0.00 0.00 0.00 62 1016.3
20240721233010 77 113 2.0 4.0 0.00 0.00 0.00 62 1016.3
20240721232510 77 113 1.0 3.0 0.00 0.00 0.00 62 1016.2
20240721232010 77 113 2.0 4.0 0.00 0.00 0.00 62 1016.1
20240721231509 77 158 2.0 6.0 0.00 0.00 0.00 61 1016.0
20240721231010 78 135 3.0 8.0 0.00 0.00 0.00 61 1016.0
20240721230540 78 113 3.0 6.0 0.00 0.00 0.00 61 1016.0
20240721230009 78 68 3.0 6.0 0.00 0.00 0.00 60 1016.0
20240721225510 79 113 3.0 8.0 0.00 0.00 0.00 61 1015.8
20240721225009 79 90 4.0 7.0 0.00 0.00 0.00 59 1015.9
20240721224540 81 315 2.0 9.0 0.00 0.00 0.00 58 1015.8
20240721224009 80 248 1.0 4.0 0.00 0.00 0.00 61 1015.8
20240721223509 80 248 1.0 2.0 0.00 0.00 0.00 60 1015.8
20240721223040 80 0.0 1.0 0.00 0.00 0.00 61 1015.8
20240721222509 80 270 1.0 2.0 0.00 0.00 0.00 60 1015.8
20240721222009 81 0.0 2.0 0.00 0.00 0.00 61 1015.9
20240721221509 81 0.0 3.0 0.00 0.00 0.00 58 1015.7
20240721221009 81 0.0 0.0 0.00 0.00 0.00 57 1015.8
20240721220509 81 0.0 0.0 0.00 0.00 0.00 56 1015.7
20240721220009 81 0.0 1.0 0.00 0.00 0.00 57 1015.8
20240721215540 81 0.0 0.0 0.00 0.00 0.00 58 1015.6
20240721215009 81 0.0 0.0 0.00 0.00 0.00 59 1015.7
20240721214509 81 0.0 0.0 0.00 0.00 0.00 58 1015.6
20240721214009 81 0.0 0.0 0.00 0.00 0.00 58 1015.7
20240721213509 81 0.0 1.0 0.00 0.00 0.00 60 1015.7
20240721213010 81 225 1.0 4.0 0.00 0.00 0.00 58 1015.8
20240721212509 81 45 1.0 2.0 0.00 0.00 0.00 60 1015.6
20240721212009 82 45 1.0 3.0 0.00 0.00 0.00 57 1015.6
20240721211509 82 45 1.0 3.0 0.00 0.00 0.00 55 1015.7
20240721211009 82 113 1.0 3.0 0.00 0.00 0.00 55 1015.6
20240721210540 82 203 1.0 3.0 0.00 0.00 0.00 57 1015.7
20240721210039 82 315 1.0 2.0 0.00 0.00 0.00 59 1015.7
20240721205509 82 23 1.0 3.0 0.00 0.00 0.00 55 1015.6
20240721205009 82 0.0 2.0 0.00 0.00 0.00 55 1015.7
20240721204509 82 23 1.0 8.0 0.00 0.00 0.00 56 1015.6
20240721204009 83 270 1.0 7.0 0.00 0.00 0.00 57 1015.6
20240721203509 83 45 1.0 2.0 0.00 0.00 0.00 56 1015.6
20240721203040 83 180 1.0 4.0 0.00 0.00 0.00 57 1015.6
20240721202539 83 338 1.0 5.0 0.00 0.00 0.00 56 1015.5
20240721202009 83 45 1.0 5.0 0.00 0.00 0.00 58 1015.5
20240721201540 83 45 2.0 4.0 0.00 0.00 0.00 55 1015.6
20240721201009 83 45 1.0 3.0 0.00 0.00 0.00 54 1015.5
20240721200539 83 0 1.0 3.0 0.00 0.00 0.00 54 1015.5
20240721200009 83 270 1.0 4.0 0.00 0.00 0.00 55 1015.5
20240721195509 83 0 3.0 9.0 0.00 0.00 0.00 54 1015.5
20240721195009 84 225 2.0 4.0 0.00 0.00 0.00 54 1015.5
20240721194509 84 203 1.0 3.0 0.00 0.00 0.00 57 1015.5
20240721194009 84 180 2.0 7.0 0.00 0.00 0.00 55 1015.6
20240721193509 83 248 1.0 4.0 0.00 0.00 0.00 55 1015.6
20240721193110 83 293 1.0 6.0 0.00 0.00 0.00 54 1015.6
20240721192509 84 315 1.0 4.0 0.00 0.00 0.00 54 1015.7
20240721192009 83 45 1.0 3.0 0.00 0.00 0.00 54 1015.6
20240721191509 83 338 2.0 5.0 0.00 0.00 0.00 54 1015.5
20240721191039 83 293 3.0 6.0 0.00 0.00 0.00 56 1015.6
20240721190509 83 180 1.0 4.0 0.00 0.00 0.00 56 1015.5
20240721190009 83 135 1.0 2.0 0.00 0.00 0.00 57 1015.5
20240721185509 84 90 1.0 3.0 0.00 0.00 0.00 55 1015.6
20240721185009 83 113 1.0 3.0 0.00 0.00 0.00 55 1015.5
20240721184509 82 45 1.0 4.0 0.00 0.00 0.00 55 1015.6
20240721184009 82 0 2.0 5.0 0.00 0.00 0.00 55 1015.5
20240721183509 82 0 2.0 5.0 0.00 0.00 0.00 54 1015.6
20240721183009 82 0 2.0 4.0 0.00 0.00 0.00 53 1015.6
20240721182540 83 23 2.0 5.0 0.00 0.00 0.00 57 1015.6
20240721182110 83 338 1.0 4.0 0.00 0.00 0.00 54 1015.5
20240721181539 83 338 1.0 3.0 0.00 0.00 0.00 52 1015.6
20240721181039 83 270 1.0 4.0 0.00 0.00 0.00 53 1015.5
20240721180539 84 45 2.0 4.0 0.00 0.00 0.00 53 1015.5
20240721180009 84 0 1.0 3.0 0.00 0.00 0.00 52 1015.5
20240721175539 84 338 2.0 5.0 0.00 0.00 0.00 53 1015.4
20240721175009 84 23 2.0 4.0 0.00 0.00 0.00 53 1015.6
20240721174509 83 0 2.0 4.0 0.00 0.00 0.00 54 1015.6
20240721174009 83 293 1.0 3.0 0.00 0.00 0.00 55 1015.5
20240721173539 83 0 1.0 4.0 0.00 0.00 0.00 54 1015.6
20240721173009 82 0 1.0 3.0 0.00 0.00 0.00 54 1015.8
20240721172509 83 0 2.0 4.0 0.00 0.00 0.00 53 1015.7
20240721172009 84 338 2.0 5.0 0.00 0.00 0.00 54 1015.9
20240721171509 84 315 2.0 11.0 0.00 0.00 0.00 57 1015.8
20240721171039 83 203 2.0 5.0 0.00 0.00 0.00 55 1015.8
20240721170509 83 293 2.0 4.0 0.00 0.00 0.00 52 1015.9
20240721170009 84 225 2.0 6.0 0.00 0.00 0.00 55 1015.9
20240721165509 83 45 2.0 8.0 0.00 0.00 0.00 53 1015.9
20240721165009 83 45 1.0 4.0 0.00 0.00 0.00 56 1015.9
20240721164509 82 0 2.0 7.0 0.00 0.00 0.00 56 1015.9
20240721164039 82 0 1.0 4.0 0.00 0.00 0.00 54 1016.0
20240721163509 82 0 2.0 4.0 0.00 0.00 0.00 54 1016.1
20240721163009 81 315 1.0 3.0 0.00 0.00 0.00 55 1016.1
20240721162509 82 23 2.0 4.0 0.00 0.00 0.00 58 1016.0
20240721162009 81 23 1.0 3.0 0.00 0.00 0.00 57 1015.9
20240721161509 82 293 1.0 3.0 0.00 0.00 0.00 57 1016.0
20240721161009 82 338 1.0 3.0 0.00 0.00 0.00 58 1015.9
20240721160509 82 315 2.0 7.0 0.00 0.00 0.00 56 1015.9
20240721160009 82 338 2.0 6.0 0.00 0.00 0.00 55 1015.9
20240721155509 82 270 2.0 6.0 0.00 0.00 0.00 57 1015.9
20240721155009 82 0 2.0 4.0 0.00 0.00 0.00 60 1015.9
20240721154509 81 0 2.0 6.0 0.00 0.00 0.00 57 1015.8
20240721154009 81 113 1.0 4.0 0.00 0.00 0.00 58 1015.8
20240721153509 81 113 1.0 3.0 0.00 0.00 0.00 53 1015.9
20240721153009 81 315 1.0 2.0 0.00 0.00 0.00 56 1016.1
20240721152509 81 315 2.0 4.0 0.00 0.00 0.00 55 1016.2
20240721152009 81 203 1.0 4.0 0.00 0.00 0.00 55 1016.3
20240721151509 81 23 2.0 5.0 0.00 0.00 0.00 56 1016.1
20240721151039 81 0 1.0 3.0 0.00 0.00 0.00 57 1016.3
20240721150509 80 293 1.0 3.0 0.00 0.00 0.00 56 1016.3
20240721150009 80 0 1.0 8.0 0.00 0.00 0.00 57 1016.4
20240721145539 81 203 2.0 8.0 0.00 0.00 0.00 57 1016.3
20240721145009 80 0 1.0 5.0 0.00 0.00 0.00 58 1016.4
20240721144509 80 0 1.0 4.0 0.00 0.00 0.00 60 1016.3
20240721144009 80 293 1.0 4.0 0.00 0.00 0.00 58 1016.3
20240721143509 80 293 1.0 4.0 0.00 0.00 0.00 58 1016.3
20240721143009 80 0 1.0 3.0 0.00 0.00 0.00 61 1016.3
20240721142507 79 338 2.0 3.0 0.00 0.00 0.00 59 1016.1
20240721142010 79 315 1.0 2.0 0.00 0.00 0.00 65 1016.2
20240721141540 79 315 1.0 2.0 0.00 0.00 0.00 60 1016.1
20240721141010 79 270 1.0 4.0 0.00 0.00 0.00 61 1016.3
20240721140510 79 68 1.0 2.0 0.00 0.00 0.00 60 1016.3
20240721140009 79 68 1.0 2.0 0.00 0.00 0.00 59 1016.3
20240721135540 79 68 1.0 3.0 0.00 0.00 0.00 62 1016.3
20240721135010 79 68 2.0 3.0 0.00 0.00 0.00 62 1016.2
20240721134510 78 45 1.0 5.0 0.00 0.00 0.00 60 1016.2
20240721134010 77 68 1.0 3.0 0.00 0.00 0.00 61 1016.2
20240721133540 78 45 1.0 3.0 0.00 0.00 0.00 62 1016.2
20240721133009 78 68 1.0 2.0 0.00 0.00 0.00 61 1016.2
20240721132509 77 68 1.0 3.0 0.00 0.00 0.00 62 1016.3
20240721132010 77 68 1.0 4.0 0.00 0.00 0.00 63 1016.3
20240721131510 77 45 2.0 7.0 0.00 0.00 0.00 63 1016.4
20240721131040 76 293 1.0 2.0 0.00 0.00 0.00 64 1016.3
20240721130510 76 23 1.0 3.0 0.00 0.00 0.00 65 1016.4
20240721130040 76 0.0 2.0 0.00 0.00 0.00 66 1016.4
20240721125510 76 0.0 3.0 0.00 0.00 0.00 65 1016.4
20240721125040 76 0.0 2.0 0.00 0.00 0.00 68 1016.5
20240721124510 75 23 1.0 2.0 0.00 0.00 0.00 68 1016.4
20240721124009 75 23 1.0 2.0 0.00 0.00 0.00 71 1016.4
20240721123509 75 23 1.0 2.0 0.00 0.00 0.00 70 1016.3
20240721123010 75 23 1.0 3.0 0.00 0.00 0.00 70 1016.4
20240721122540 74 23 1.0 3.0 0.00 0.00 0.00 70 1016.4
20240721122010 74 23 1.0 2.0 0.00 0.00 0.00 72 1016.4
20240721121510 74 23 1.0 2.0 0.00 0.00 0.00 72 1016.3
20240721121010 74 23 1.0 3.0 0.00 0.00 0.00 73 1016.5
20240721120509 73 23 1.0 2.0 0.00 0.00 0.00 73 1016.3
20240721120040 73 23 1.0 3.0 0.00 0.00 0.00 75 1016.4
20240721115509 73 45 1.0 3.0 0.00 0.00 0.00 76 1016.4
20240721115039 73 45 1.0 3.0 0.00 0.00 0.00 77 1016.5
20240721114510 72 158 1.0 3.0 0.00 0.00 0.00 77 1016.5
20240721114009 72 158 1.0 4.0 0.00 0.00 0.00 77 1016.5
20240721113509 72 45 1.0 3.0 0.00 0.00 0.00 78 1016.3
20240721113010 72 180 1.0 3.0 0.00 0.00 0.00 79 1016.3
20240721112539 72 270 1.0 3.0 0.00 0.00 0.00 80 1016.3
20240721112009 72 0 1.0 4.0 0.00 0.00 0.00 80 1016.3
20240721111509 72 338 1.0 5.0 0.00 0.00 0.00 80 1016.3
20240721111010 72 135 1.0 4.0 0.00 0.00 0.00 81 1016.3
20240721110509 71 158 1.0 4.0 0.00 0.00 0.00 81 1016.2
20240721110009 71 158 1.0 2.0 0.00 0.00 0.00 82 1016.1
20240721105510 71 225 1.0 4.0 0.00 0.00 0.00 83 1016.1
20240721105009 71 0 1.0 3.0 0.00 0.00 0.00 83 1016.0
20240721104509 71 293 1.0 3.0 0.00 0.00 0.00 83 1016.0
20240721104009 70 248 1.0 4.0 0.00 0.00 0.00 84 1016.1
20240721103509 70 203 1.0 3.0 0.00 0.00 0.00 85 1015.9
20240721103010 70 0.0 3.0 0.00 0.00 0.00 85 1015.9
20240721102509 69 0.0 3.0 0.00 0.00 0.00 86 1015.9
20240721102039 69 0.0 2.0 0.00 0.00 0.00 86 1015.8
20240721101509 69 203 1.0 3.0 0.00 0.00 0.00 86 1015.8
20240721101009 68 180 1.0 3.0 0.00 0.00 0.00 86 1015.7
20240721100540 68 0.0 1.0 0.00 0.00 0.00 86 1015.8
20240721100009 68 0.0 0.0 0.00 0.00 0.00 86 1015.7
20240721095509 68 0.0 0.0 0.00 0.00 0.00 86 1015.7
20240721095009 68 0.0 0.0 0.00 0.00 0.00 86 1015.7
20240721094509 68 0.0 2.0 0.00 0.00 0.00 86 1015.6
20240721094009 68 180 1.0 2.0 0.00 0.00 0.00 86 1015.6
20240721093509 69 180 1.0 2.0 0.00 0.00 0.00 85 1015.5
20240721093009 69 0.0 1.0 0.00 0.00 0.00 85 1015.5
20240721092609 69 0.0 2.0 0.00 0.00 0.00 85 1015.5
20240721092009 69 0.0 1.0 0.00 0.00 0.00 85 1015.5
20240721091509 69 248 1.0 3.0 0.00 0.00 0.00 85 1015.4
20240721091009 69 225 1.0 2.0 0.00 0.00 0.00 84 1015.3
20240721090509 69 203 1.0 3.0 0.00 0.00 0.00 84 1015.3
20240721090009 69 0.0 3.0 0.00 0.00 0.00 84 1015.4
20240721085539 69 0.0 0.0 0.00 0.00 0.00 84 1015.4
20240721085009 69 0.0 1.0 0.00 0.00 0.00 84 1015.3
20240721084509 69 203 1.0 2.0 0.00 0.00 0.00 84 1015.3
20240721084009 69 0.0 2.0 0.00 0.00 0.00 84 1015.3
20240721083539 69 203 1.0 3.0 0.00 0.00 0.00 83 1015.3
20240721083009 70 0.0 3.0 0.00 0.00 0.00 83 1015.3
20240721082509 70 0.0 3.0 0.00 0.00 0.00 83 1015.3
20240721082009 70 0.0 0.0 0.00 0.00 0.00 83 1015.3
20240721081509 70 0.0 0.0 0.00 0.00 0.00 83 1015.3
20240721081010 70 203 1.0 2.0 0.00 0.00 0.00 82 1015.2
20240721080509 70 203 1.0 3.0 0.00 0.00 0.00 82 1015.3
20240721080039 70 0.0 2.0 0.00 0.00 0.00 82 1015.3
20240721075509 70 203 1.0 3.0 0.00 0.00 0.00 82 1015.4
20240721075009 70 203 1.0 4.0 0.00 0.00 0.00 82 1015.4
20240721074509 70 203 1.0 3.0 0.00 0.00 0.00 82 1015.4
20240721074009 70 203 1.0 3.0 0.00 0.00 0.00 82 1015.4
20240721073509 70 225 1.0 4.0 0.00 0.00 0.00 82 1015.4
20240721073009 70 225 1.0 4.0 0.00 0.00 0.00 82 1015.4
20240721072509 70 203 2.0 3.0 0.00 0.00 0.00 82 1015.3
20240721072009 70 293 1.0 4.0 0.00 0.00 0.00 82 1015.4
20240721071509 70 293 1.0 3.0 0.00 0.00 0.00 82 1015.4
20240721071009 70 225 1.0 2.0 0.00 0.00 0.00 82 1015.5
20240721070509 70 0.0 0.0 0.00 0.00 0.00 82 1015.4
20240721070009 70 0.0 0.0 0.00 0.00 0.00 82 1015.5
20240721065509 70 0.0 1.0 0.00 0.00 0.00 81 1015.4
20240721065009 70 0.0 2.0 0.00 0.00 0.00 81 1015.3
20240721064509 70 203 1.0 5.0 0.00 0.00 0.00 81 1015.4
20240721064009 70 225 1.0 3.0 0.00 0.00 0.00 81 1015.6
20240721063509 70 0.0 1.0 0.00 0.00 0.00 81 1015.6
20240721063009 70 225 1.0 3.0 0.00 0.00 0.00 81 1015.6
20240721062509 70 0.0 1.0 0.00 0.00 0.00 81 1015.6
20240721062009 71 0.0 2.0 0.00 0.00 0.00 80 1015.5
20240721061509 71 225 1.0 4.0 0.00 0.00 0.00 80 1015.4
20240721061009 70 0.0 0.0 0.00 0.00 0.00 80 1015.6
20240721060509 71 0.0 1.0 0.00 0.00 0.00 80 1015.5
20240721060009 71 225 1.0 2.0 0.00 0.00 0.00 79 1015.5
20240721055509 71 225 1.0 2.0 0.00 0.00 0.00 79 1015.6
20240721055009 71 225 1.0 2.0 0.00 0.00 0.00 79 1015.5
20240721054509 71 225 1.0 2.0 0.00 0.00 0.00 79 1015.6
20240721054039 71 0.0 2.0 0.00 0.00 0.00 79 1015.6
20240721053509 71 225 1.0 2.0 0.00 0.00 0.00 79 1015.6
20240721053009 71 0.0 2.0 0.00 0.00 0.00 78 1015.7
20240721052509 72 0.0 2.0 0.00 0.00 0.00 78 1015.7
20240721052009 72 0.0 1.0 0.00 0.00 0.00 78 1015.7
20240721051509 72 0.0 0.0 0.00 0.00 0.00 77 1015.8
20240721051009 72 0.0 3.0 0.00 0.00 0.00 77 1015.8
20240721050509 72 0.0 2.0 0.00 0.00 0.00 77 1015.8
20240721050009 72 225 1.0 3.0 0.00 0.00 0.00 77 1016.0
20240721045509 73 203 1.0 3.0 0.00 0.00 0.00 76 1016.0
20240721045009 73 203 1.0 2.0 0.00 0.00 0.00 76 1016.0
20240721044509 73 203 2.0 3.0 0.00 0.00 0.00 76 1016.2
20240721044009 73 203 2.0 5.0 0.00 0.00 0.00 76 1016.1
20240721043509 73 203 1.0 5.0 0.00 0.00 0.00 76 1016.1
20240721043009 73 203 1.0 7.0 0.00 0.00 0.00 75 1016.0
20240721042509 73 180 2.0 7.0 0.00 0.00 0.00 75 1016.0
20240721042009 73 225 1.0 5.0 0.00 0.00 0.00 75 1016.0
20240721041509 73 225 1.0 3.0 0.00 0.00 0.00 75 1016.0
20240721041009 74 203 1.0 3.0 0.00 0.00 0.00 75 1016.0
20240721040509 74 203 2.0 4.0 0.00 0.00 0.00 75 1016.1
20240721040011 74 203 1.0 6.0 0.00 0.00 0.00 74 1016.2
20240721035509 74 225 2.0 4.0 0.00 0.00 0.00 74 1016.2
20240721035009 74 180 2.0 6.0 0.00 0.00 0.00 74 1016.3
20240721034509 74 180 2.0 7.0 0.00 0.00 0.00 73 1016.3
20240721034009 74 203 2.0 8.0 0.00 0.00 0.00 73 1016.3
20240721033509 74 135 1.0 5.0 0.00 0.00 0.00 74 1016.2
20240721033009 75 180 2.0 4.0 0.00 0.00 0.00 73 1016.2
20240721032509 75 180 2.0 3.0 0.00 0.00 0.00 73 1016.3
20240721032039 75 203 2.0 5.0 0.00 0.00 0.00 73 1016.3
20240721031509 75 225 3.0 7.0 0.00 0.00 0.00 73 1016.2
20240721031039 75 180 3.0 8.0 0.00 0.00 0.00 73 1016.2
20240721030508 75 203 2.0 5.0 0.00 0.00 0.00 73 1016.4
20240721030009 75 203 1.0 4.0 0.00 0.00 0.00 73 1016.3
20240721025509 75 0 2.0 5.0 0.00 0.00 0.00 72 1016.3
20240721025039 75 180 2.0 7.0 0.00 0.00 0.00 72 1016.3
20240721024509 76 158 1.0 4.0 0.00 0.00 0.00 72 1016.4
20240721024009 76 248 2.0 5.0 0.00 0.00 0.00 71 1016.5
20240721023509 76 180 2.0 9.0 0.00 0.00 0.00 72 1016.5